Skip Page Navigation
NASA JPL Caltech
NASA Logo - Jet Propulsion Laboratory + View the NASA Portal
+ Center for Near-Earth Object Studies
JPL Home Earth Solar System Stars & Galaxies Technology
JPL Solar System Dynamics
BODIES ORBITS EPHEMERIDES TOOLS PHYSICAL DATA DISCOVERY FAQ SITE MAP
JPL Small-Body Database Browser
Search: [ help ]  
885 Ulrike (A917 SV)
Classification: Main-belt Asteroid          SPK-ID: 2000885
Ephemeris | Orbit Diagram | Orbital Elements | Mission Design | Physical Parameters | Discovery Circumstances | Close-Approach Data ]

[ show orbit diagram ]
Orbital Elements at Epoch 2459200.5 (2020-Dec-17.0) TDB
Reference: JPL 48 (heliocentric ecliptic J2000)
 Element Value Uncertainty (1-sigma)   Units 
e .184252571927701 1.6536e-08  
a 3.095923051481376 9.4381e-09 au
q 2.525491266755676 5.1978e-08 au
i 3.307423834097768 1.0469e-06 deg
node 148.888661465227 1.089e-05 deg
peri 203.8220608667843 1.2554e-05 deg
M 354.4930365349571 4.6654e-06 deg
tp 2459230.936405261921
(2021-Jan-16.43640526)
2.5814e-05 TDB
period 1989.681966086221
5.45
9.0985e-06
2.491e-08
d
yr
n .1809334386782092 8.2738e-10 deg/d
Q 3.666354836207076 1.1177e-08 au
  Orbit Determination Parameters
   # obs. used (total)      3686  
   data-arc span      41787 days (114.41 yr)  
   first obs. used      1906-08-24  
   last obs. used      2021-01-19  
   planetary ephem.      DE441  
   SB-pert. ephem.      SB441-N16  
   condition code      0  
   norm. resid. RMS      .42405  
   source      ORB  
   producer      Otto Matic  
   solution date      2021-Apr-12 11:34:57  

Additional Information
 Earth MOID = 1.51883 au 
 Jupiter MOID = 1.77174 au 
 T_jup = 3.194 
[ show covariance matrix ]

Ephemeris | Orbit Diagram | Orbital Elements | Mission Design | Physical Parameters | Discovery Circumstances | Close-Approach Data ]

Physical Parameter Table
Parameter Symbol Value Units Sigma Reference Notes
absolute magnitude H 10.75   n/a E2021B10  
diameter diameter 30.537 km 0.756 urn:nasa:pds:neowise_diameters_albedos::2.0[mainbelt] (http://adsabs.harvard.edu/abs/2012ApJ...759L...8M)  
rotation period rot_per 4.90 h n/a LCDB (Rev. 2020-October); Warner et al., 2009 Published Reference List:
[Behrend, R. (2004) Observatoire de Geneve web site, http://obswww.unige.ch/~behrend/page_cou.html]
[Menke, J. (2005) Minor Planet Bull. 32, 85-88.]
[Durech, J.; Hanus, J.; Oszkiewsicz, D.; Vanco, R. (2016) Astron. Astrophys. 587, A48.]
[Behrend, R. (2020) Observatoire de Geneve web site, http://obswww.unige.ch/~behrend/page_cou.html]
geometric albedo albedo 0.109   0.025 urn:nasa:pds:neowise_diameters_albedos::2.0[mainbelt] (http://adsabs.harvard.edu/abs/2012ApJ...759L...8M)  

885 Ulrike (A917 SV)          Discovered 1917-Sep-23 by Belyavskij, S. at Simeis
Independent discovery Sept. 26 by M. Wolf, Heidelberg, was announced first.
Reference: DISCOVERY.DBLast Updated: 2003-08-29

[ show close-approach data ]
Alternate Designations
 A917 SV = 1933 QQ = 1934 XL = A906 SE 
Ephemeris | Orbit Diagram | Orbital Elements | Mission Design | Physical Parameters | Discovery Circumstances | Close-Approach Data ]
ABOUT SSD CREDITS/AWARDS PRIVACY/COPYRIGHT GLOSSARY LINKS
FirstGov 2021-Apr-23 00:19 UT
(server date/time)  
NASA Home Page
Site Manager:   Ryan S. Park
Webmaster  Alan B. Chamberlin